[Iaude] MPEC F56: 2024 FR1 [a=2.71,e=0.72,i=7.7,H=21.8]
    mpec at cfa.harvard.edu 
    mpec at cfa.harvard.edu
       
    Thu Mar 21 03:47:55 EDT 2024
    
    
  
M.P.E.C. 2024-F56                                Issued 2024 March 21, 07:46 UT
     The Minor Planet Electronic Circulars contain information on unusual
         minor planets, routine data on comets and natural satellites,
         and occasional editorial announcements.  They are published
    on behalf of Division F of the International Astronomical Union by the
          Minor Planet Center, Smithsonian Astrophysical Observatory,
                          Cambridge, MA 02138, U.S.A.
			  
             Prepared using the Tamkin Foundation Computer Network
                              MPC at CFA.HARVARD.EDU
            URL https://www.minorplanetcenter.net/    ISSN 1523-6714
                                    2024 FR1                                    
Observations:
     K24F01R*1C2024 03 19.28988913 31 44.828+17 03 05.62         20.13GVEF056G96
     K24F01R 1C2024 03 19.29500213 31 43.810+17 03 06.88         20.33GVEF056G96
     K24F01R 1C2024 03 19.30012013 31 42.845+17 03 07.52         20.29GVEF056G96
     K24F01R 1C2024 03 19.30524113 31 41.815+17 03 08.24         20.17GVEF056G96
     K24F01R  C2024 03 19.33589713 31 34.62 +17 03 41.7                WEF056X09
     K24F01R  C2024 03 19.34521213 31 32.75 +17 03 42.9                WEF056X09
     K24F01R KC2024 03 19.37381913 31 28.301+17 03 18.90         21.05GVEF056I52
     K24F01R KC2024 03 19.37948413 31 27.196+17 03 19.30         21.65GVEF056I52
     K24F01R KC2024 03 19.38742113 31 25.633+17 03 20.59         21.36GVEF056I52
     K24F01R KC2024 03 20.26025113 28 47.053+17 05 02.83         20.36GVEF056I52
     K24F01R KC2024 03 20.26233513 28 46.618+17 05 03.30         20.55GVEF056I52
     K24F01R KC2024 03 20.26440013 28 46.247+17 05 03.34         20.27GVEF056I52
     K24F01R KC2024 03 20.26646413 28 45.858+17 05 03.70         20.28GVEF056I52
     K24F01R KC2024 03 21.29745513 25 43.65 +17 06 21.5          20.8 GVEF056H21
     K24F01R KC2024 03 21.30165513 25 42.90 +17 06 21.8          20.7 GVEF056H21
     K24F01R KC2024 03 21.30585213 25 42.09 +17 06 22.1          20.6 GVEF056H21
Observer details:
G96 Mt. Lemmon Survey.  Observer G. J. Leonard.  Measurers T. Beuden, V. F.
    Carvajal, D. Fay, J. B. Fazekas, D. C. Fuls, A. R. Gibbs, A. D. Grauer, H.
    Groeller, J. K. Hogan, R. A. Kowalski, S. M. Larson, G. J. Leonard, D.
    Rankin, R. L. Seaman, F. C. Shelly, K. W. Wierzchos.  1.5-m reflector +
    10K CCD.
H21 Astronomical Research Observatory, Westfield.  Observer R. Holmes.
    Measurers T. Linder, R. Holmes, L. Horn.  0.76-m f/3.0 astrograph + CCD.
I52 Steward Observatory, Mt. Lemmon Station.  Observer R. A. Kowalski.
    Measurers T. Beuden, V. F. Carvajal, D. Fay, J. B. Fazekas, D. C. Fuls, A.
    R. Gibbs, A. D. Grauer, H. Groeller, J. K. Hogan, R. A. Kowalski, S. M.
    Larson, G. J. Leonard, D. Rankin, R. L. Seaman, F. C. Shelly, K. W.
    Wierzchos.  1.0-m prime focus + CCD.
X09 Deep Random Survey, Rio Hurtado.  Observers A. Schnabel, D. Ruhela.
    Measurer S. Deen.  0.43-m reflector + CMOS.
Orbital elements:
2024 FR1                                                 Earth MOID = 0.0530 AU
Epoch 2024 Mar. 31.0 TT = JDT 2460400.5                 MPC                     
M  17.29766              (2000.0)            P               Q                  
n   0.22115614     Peri.  321.27197     -0.08470579     -0.99166252             
a   2.7081333      Node   133.35285     +0.94420026     -0.11101850             
e   0.7188331      Incl.    7.67483     +0.31829358     +0.06542431             
P   4.46           H   21.81          G   0.15           U   9                  
Residuals in seconds of arc
240319 G96  0.1-  0.1-    240319 I52  0.1-  0.2+    240320 I52  0.1-  0.0
240319 G96  0.3-  0.3+    240319 I52  0.1+  0.2-    240321 H21  0.1+  0.1-
240319 G96  0.3+  0.1+    240319 I52  0.1+  0.0     240321 H21  0.3+  0.0
240319 G96  0.0   0.0     240320 I52  0.4+  0.0     240321 H21  0.4-  0.1+
240319 X09  0.1-  0.5+    240320 I52  0.3-  0.2+
240319 X09  0.7-  0.6+    240320 I52  0.0   0.0
Ephemeris:
2024 FR1                 a,e,i = 2.71, 0.72, 8                   q = 0.7614
Date    TT    R. A. (2000) Decl.     Delta      r    Elong.  Phase     V
2024 02 20    16 44 35.8 +04 13 12   0.1177  0.9800    82.4    90.7    20.3
...
2024 03 06    14 27 58.4 +14 58 02   0.2021  1.1321   129.8    42.3    20.3
...
2024 03 14    13 50 14.3 +16 38 25   0.2631  1.2174   144.2    28.5    20.6
...
2024 03 20    13 29 33.1 +17 04 44   0.3148  1.2821   151.9    21.5    20.9
2024 03 21    13 26 35.2 +17 06 13   0.3239  1.2929   152.9    20.5    20.9
2024 03 22    13 23 44.6 +17 07 01   0.3332  1.3037   153.8    19.7    21.0
...
2024 03 28    13 08 59.3 +16 59 08   0.3919  1.3686   157.6    16.2    21.3
...
2024 04 05    12 54 29.0 +16 23 12   0.4789  1.4546   157.6    15.2    21.9
...
2024 04 20    12 39 22.0 +14 28 34   0.6692  1.6132   148.4    19.0    22.9
A. U. Tomatic                (C) Copyright 2024 MPC           M.P.E.C. 2024-F56
    
    
More information about the Iaude
mailing list